{"data":{"norad_id":58894,"intl_designator":"2024-020U","name":"STARLINK-31243","alt_names":[],"object_type":"PAYLOAD","status":"ACTIVE","operator":null,"country":"US","launch_date":"2024-01-29","launch_site_code":"AFWTR","launch_vehicle":null,"mission":null,"orbit_class":"UNKNOWN","rcs_meters":null,"size_class":null,"mass_kg":null,"dimensions":null,"purposes":["comms"],"wikipedia_slug":null,"has_3d_model":false,"image_url":null,"decayed_at":null,"tle_current":{"epoch":"2026-09-20T08:30:07.192224Z","epoch_age_seconds":168151,"freshness":"FRESH","line1":"1 58894U 24020U   26263.35424991  .00000715  00000+0  34812-4 0  9992","line2":"2 58894  53.1603 136.9078 0001010  72.1384 287.9727 15.31701982147893","mean_motion":15.31701982,"eccentricity":0.000101,"inclination_deg":53.1603,"raan_deg":136.9078,"arg_perigee_deg":72.1384,"mean_anomaly_deg":287.9727,"bstar":3.4812e-5,"rev_number":14789,"period_min":94.013066309396,"perigee_km":470.04235101337,"apogee_km":471.42582297294,"semimajor_km":6848.8710869932,"source":"CELESTRAK","updated_at":"2026-09-21T09:00:33.995167Z"}}}